Location: Cambroso
(45.2833°N, 12.0850°E)
Time: 15:55:31
(UTC+00:00)

Cosmos 2263 Rocket - Pass Details

Date: 21 January 2021
Orbit: 825 x 847 km, 71.0° (Epoch: 25 February)

Event Time Altitude Azimuth Distance (km) Brightness Sun altitude
Rises 16:56:59 0° 223° (SW) 3,397 6.5 -9.5°
Reaches altitude 10° 16:59:31 10° 229° (SW) 2,464 5.8 -9.9°
Maximum altitude 17:04:57 47° 302° (WNW) 1,115 3.2 -10.8°
Drops below altitude 10° 17:10:25 10° 16° (NNE) 2,468 4.3 -11.7°
Enters shadow 17:12:49 - 22° (NNE) 3,347 4.9 -12.1°
